Location: Bats
(43.6587°N, 0.4584°W)
Time: 04:56:48
(UTC+00:00)

Resurs 01 Rocket - Visible Passes

Search period start: 21 April 2026 00:00
Search period end: 01 May 2026 00:00
Orbit: 625 x 637 km, 97.7° (Epoch: 20 April)

Date Brightness Start Highest point End Pass type
(mag) Time Alt. Az. Time Alt. Az. Time Alt. Az.
21 Apr 2.7 19:16:08 10° S 19:20:22 49° W 19:24:38 10° NNW visible
22 Apr 3.6 19:37:18 10° SSW 19:41:08 30° W 19:44:59 10° NW visible
23 Apr 4.3 19:58:54 10° SW 20:01:57 18° W 20:05:01 10° NW visible
24 Apr 4.7 20:21:34 10° WSW 20:22:50 11° W 20:24:07 10° WNW visible
26 Apr 3.0 19:23:15 10° S 19:27:22 41° W 19:31:31 10° NNW visible
27 Apr 3.9 19:44:33 10° SSW 19:48:09 25° W 19:51:47 10° NW visible
28 Apr 4.4 20:06:23 10° SW 20:08:59 15° W 20:11:37 10° NW visible
